Wind_Speed
24 23 22 20 19 19 20 20 20 19 19 18 18 17 17 16 16 15 14 13 13 13 13 12 10 9 8 7 8 9 9 9 10 10 10 10 9 9 9 10 9 8 7 7 9 9 9 7 6 6 6 6 5 5 4 3 3 4 6 6 5 4 4 3 3 3 4 4 3
25 24 23 21 20 21 21 21 20 20 19 18 18 18 17 17 16 15 15 14 14 14 14 13 12 10 9 8 7 8 8 9 10 9 8 7 6 7 8 9 10 9 9 8 8 9 8 7 7 7 7 6 4 3 2 1 2 3 5 6 5 5 4 4 3 4 4 5 4
25 24 24 23 23 23 23 23 22 21 20 20 19 18 18 17 16 15 15 15 15 15 15 14 13 12 10 9 8 8 8 9 10 10 10 10 10 9 9 9 10 10 10 10 9 9 8 8 8 9 9 6 3 2 2 1 1 2 5 5 4 4 4 3 4 4 4 4 4
25 25 24 24 24 24 24 23 23 22 21 21 21 20 19 17 16 15 14 14 14 14 14 14 13 12 11 10 9 9 9 9 10 10 11 12 12 11 11 10 10 10 11 11 10 9 9 9 9 10 10 7 4 2 3 3 2 2 3 4 3 3 3 3 3 3 3 3 3
26 25 25 25 25 24 24 23 23 23 22 21 21 22 21 18 17 15 15 14 14 14 14 13 13 12 11 10 10 10 10 10 10 10 11 11 11 11 11 10 10 11 12 12 11 10 9 9 10 11 11 9 6 4 4 4 3 3 3 3 3 3 3 3 3 3 2 3 2
26 25 25 24 24 24 24 24 24 23 22 21 21 22 22 21 18 16 16 15 14 13 12 12 12 11 10 10 10 10 11 11 12 12 12 11 11 11 11 11 11 12 12 12 12 10 9 9 10 11 11 10 7 5 4 4 5 5 4 4 4 5 4 3 3 3 2 2 2
25 25 24 24 24 25 25 25 24 23 22 21 21 21 22 22 20 18 16 15 15 13 12 11 11 11 11 11 11 11 11 12 12 13 13 13 13 13 13 13 13 13 13 13 12 10 9 9 10 11 11 10 8 6 5 5 6 6 6 5 5 5 4 2 3 3 2 2 2
26 25 25 24 24 25 25 25 24 23 22 21 21 21 21 21 21 19 17 15 14 13 12 11 11 11 12 12 12 12 12 12 13 13 13 12 13 13 13 13 14 14 14 14 12 10 8 9 10 11 11 11 9 7 6 6 6 7 6 4 3 4 2 2 4 3 2 2 2
26 26 25 25 25 25 25 25 24 23 23 22 21 21 21 21 20 20 18 16 14 13 12 11 11 11 12 12 12 12 13 13 13 12 12 12 12 12 12 13 14 15 15 14 12 10 8 9 10 11 12 12 9 7 7 7 7 7 5 3 2 2 1 3 4 3 2 2 2
26 26 25 25 25 25 25 25 24 23 23 23 22 22 21 20 19 19 18 17 15 13 12 11 11 12 12 12 12 13 13 13 13 13 13 14 14 13 13 12 13 14 15 14 12 10 8 8 9 11 13 12 10 8 8 9 8 7 5 4 3 3 3 3 3 2 2 2 2
26 25 25 24 24 25 26 25 24 23 23 23 24 24 23 21 19 18 17 17 16 14 13 11 11 12 12 12 12 13 13 14 14 14 15 15 15 15 14 13 13 14 15 15 13 10 8 7 9 11 13 13 10 9 10 10 9 7 5 5 4 4 4 3 2 2 2 2 2
26 25 25 24 24 25 25 25 24 23 23 24 25 25 25 23 20 18 17 17 16 15 13 12 12 12 12 12 12 13 13 13 13 14 14 15 16 16 15 14 14 15 16 15 14 11 8 8 9 11 13 12 10 11 12 12 10 8 6 5 6 6 5 3 3 2 1 2 2
26 25 25 24 24 24 24 24 24 24 24 24 25 26 26 25 22 19 17 17 16 15 14 13 12 13 13 13 12 12 13 13 13 14 14 15 16 16 16 16 15 16 17 17 15 12 9 9 10 11 12 12 10 11 13 12 10 8 6 6 7 7 6 5 4 2 1 2 2
26 25 25 25 24 24 23 23 24 24 24 25 25 26 26 26 24 21 19 17 16 16 15 14 14 14 14 14 14 14 14 14 15 16 16 17 17 18 17 16 15 16 17 18 16 13 10 9 11 12 13 12 10 11 13 11 9 7 7 7 8 8 7 6 5 3 2 2 2
26 25 25 25 25 24 23 22 23 23 24 25 26 26 26 26 26 24 21 19 17 17 16 15 15 15 15 15 15 15 15 16 16 17 18 18 18 17 15 14 14 16 17 18 17 14 11 10 11 12 13 13 11 10 11 9 7 6 7 8 9 8 7 6 5 4 2 2 3
26 26 25 25 25 24 24 23 22 23 24 26 26 27 26 26 26 25 24 21 19 17 17 16 16 16 15 15 15 15 15 16 16 17 17 16 14 13 12 12 12 14 16 17 17 15 13 10 11 13 14 14 12 10 10 8 7 7 8 9 9 8 7 7 6 4 3 3 3
27 26 26 26 25 25 25 24 23 22 23 25 26 27 27 27 26 26 25 23 20 18 17 17 16 16 16 15 15 16 16 16 16 16 15 13 12 10 10 11 12 13 15 16 17 16 14 11 12 13 14 14 13 12 10 9 8 8 9 10 9 8 7 7 6 5 4 3 3
27 26 26 26 26 25 25 25 24 23 23 24 25 26 27 27 27 26 25 23 22 20 18 17 17 16 16 17 17 17 17 16 16 15 14 12 11 10 10 10 11 12 13 15 16 17 16 12 11 13 14 15 15 13 12 11 10 10 11 11 9 8 7 6 6 6 5 4 3
27 27 27 26 26 26 26 25 24 24 23 23 24 26 27 28 28 27 26 24 22 21 19 18 17 17 17 17 17 17 17 16 15 14 14 13 12 10 10 10 11 11 12 13 15 17 16 13 11 12 14 16 16 14 13 13 12 12 12 12 10 8 6 6 6 6 5 4 4
27 27 27 27 27 27 26 25 25 24 23 23 23 25 27 28 28 27 26 25 23 21 20 18 17 17 17 17 17 18 17 17 15 14 14 13 12 10 10 10 11 11 11 11 13 16 16 13 11 11 14 16 16 13 12 14 14 14 14 12 9 7 6 6 7 7 6 5 5
27 27 27 27 27 26 26 25 25 24 23 23 23 24 26 28 28 27 26 24 23 22 20 18 17 17 17 17 17 17 17 16 15 14 13 13 12 11 10 11 11 11 11 11 12 14 15 14 12 13 15 16 15 12 11 13 15 16 14 11 8 6 6 7 8 8 7 6 6
27 28 28 27 26 26 25 24 24 24 24 23 23 24 25 26 27 27 26 25 23 22 21 19 18 17 17 17 17 17 16 16 15 14 13 13 12 11 11 12 12 12 12 11 12 13 14 15 14 15 16 16 14 11 11 13 15 15 13 9 7 7 8 9 8 8 7 7 7
27 28 28 27 25 25 24 24 24 24 24 24 24 24 24 25 26 27 27 25 24 22 21 20 18 17 17 17 17 17 16 16 15 14 14 13 13 12 12 13 13 13 13 13 13 13 14 15 15 16 18 17 13 11 12 14 15 14 11 8 7 8 9 9 8 7 8 8 8
27 28 27 26 24 24 24 24 24 25 25 25 24 24 24 24 25 26 27 26 24 23 22 20 18 17 17 17 17 17 16 15 15 15 14 14 13 13 13 13 14 14 15 15 14 13 12 14 15 17 18 17 13 12 13 15 14 13 11 9 9 10 10 9 8 8 8 9 9
27 27 25 24 24 24 24 24 25 25 25 25 25 24 23 23 24 25 25 26 25 24 22 21 19 17 16 16 17 17 16 15 15 15 15 14 14 13 13 13 14 15 15 15 13 11 10 13 15 17 18 17 14 13 14 16 16 14 12 11 10 11 10 9 8 8 9 10 10
26 25 24 23 23 24 25 25 25 25 25 25 25 24 23 23 23 23 24 25 25 24 23 22 20 18 16 16 16 16 16 16 15 15 15 15 14 14 13 13 14 15 16 15 13 10 10 12 14 16 18 17 14 13 14 18 18 17 15 13 12 12 11 10 9 9 10 11 11
25 23 23 23 24 25 26 26 26 26 25 25 24 24 23 23 23 23 23 24 24 24 23 22 20 18 16 16 15 16 16 16 16 15 15 14 14 14 14 13 14 14 15 15 13 11 10 12 14 15 16 16 14 13 14 18 19 18 16 14 14 13 12 11 10 10 11 12 12
23 22 22 23 25 26 26 26 26 26 25 25 24 24 23 23 22 22 23 24 24 24 23 22 20 18 17 16 16 16 16 16 15 15 14 14 14 14 14 13 13 14 15 15 14 12 11 12 13 15 16 16 15 13 14 17 18 17 16 14 14 14 13 12 11 11 12 13 13
21 21 22 24 25 26 26 26 25 25 25 25 24 24 23 23 22 22 23 23 23 23 23 22 20 18 17 17 17 17 17 16 15 15 14 14 15 15 14 14 14 14 14 15 14 13 13 13 13 14 15 16 15 13 13 16 17 17 15 14 14 14 14 13 12 12 13 14 14
20 21 23 25 26 26 26 25 25 25 25 25 24 24 23 23 22 22 22 23 23 23 22 21 20 19 19 18 18 17 17 17 16 15 14 14 15 15 15 15 14 14 14 14 14 14 14 14 14 15 15 16 15 14 13 16 17 17 15 14 14 14 14 13 13 13 14 15 15
21 23 24 25 25 25 25 25 25 25 25 25 24 24 23 22 22 22 22 23 23 23 22 22 21 21 20 19 18 18 18 18 17 16 15 15 14 15 15 15 15 15 14 14 14 14 14 14 15 15 15 15 15 15 14 15 16 16 15 14 14 13 13 14 14 14 15 15 15
23 24 25 24 25 25 25 25 25 25 25 25 24 24 23 22 22 22 22 23 23 23 23 22 22 22 21 19 18 18 18 19 18 17 16 15 15 15 16 16 16 16 15 15 15 14 14 15 15 16 16 15 16 16 16 15 16 16 15 14 13 13 13 14 15 15 15 15 15
24 24 24 24 24 25 25 25 25 25 25 25 24 23 23 23 23 23 23 23 23 22 22 22 22 21 21 20 19 18 18 18 19 18 16 15 15 15 15 16 16 16 15 15 15 15 14 14 15 16 16 16 17 18 18 17 17 16 15 14 13 13 14 15 15 15 15 15 15
24 24 24 24 24 25 25 25 25 25 25 24 24 23 23 23 23 23 23 23 23 22 22 22 21 21 21 20 19 19 18 18 18 18 18 17 16 16 15 16 16 15 15 15 15 15 15 15 15 16 16 16 17 18 19 19 18 17 15 14 13 13 14 15 15 14 14 15 14
24 24 24 24 25 25 25 25 25 25 24 24 23 23 23 23 23 24 24 23 23 23 22 22 22 21 21 20 19 18 18 18 18 18 18 18 17 16 16 16 16 15 15 15 15 16 15 15 15 16 17 17 17 18 19 20 19 17 16 14 14 14 15 16 15 14 14 14 14
24 24 24 25 25 25 25 25 24 24 24 24 23 23 23 24 24 24 24 23 23 23 22 22 22 22 21 21 20 18 17 18 18 18 18 18 17 17 16 16 16 15 15 16 16 16 16 15 15 15 17 18 17 18 19 20 19 17 15 14 14 15 16 17 15 14 13 14 15
24 24 24 24 24 24 24 24 24 24 24 24 24 24 24 24 24 24 24 23 22 22 22 22 22 22 21 21 20 19 18 17 18 18 18 18 17 17 16 16 16 15 15 16 17 17 16 15 14 14 17 18 18 19 19 19 18 16 15 14 14 15 17 17 16 13 12 13 15
25 24 24 24 24 24 24 23 23 23 24 24 24 24 24 24 24 24 23 22 21 21 22 22 22 22 22 22 21 20 19 18 18 18 19 19 18 17 17 16 16 16 15 16 17 17 16 14 13 14 17 19 19 20 20 19 18 16 15 15 14 16 17 17 15 13 12 13 15
25 25 24 24 24 23 23 23 23 23 23 24 24 24 25 24 24 23 23 22 21 21 22 22 23 23 22 22 21 20 19 18 18 18 19 19 19 18 17 17 16 15 15 16 18 17 16 14 13 14 17 19 20 20 20 19 18 16 15 15 15 16 17 17 14 13 12 13 15
25 25 24 24 23 23 23 23 23 23 23 24 24 24 24 24 23 23 22 22 22 22 22 23 23 23 22 21 20 19 19 19 18 18 19 19 19 19 18 17 16 15 14 16 17 18 16 14 13 14 17 19 20 21 21 19 18 16 15 15 16 17 17 16 14 13 13 14 15
25 25 24 23 23 22 22 23 23 24 24 24 24 24 23 23 22 22 22 23 23 23 23 23 23 23 22 21 19 19 18 18 18 18 19 19 19 19 18 18 17 15 15 16 17 18 17 15 14 15 16 19 20 21 21 20 18 17 16 16 18 18 16 15 14 14 14 15 16
Wind_Direction
350 349 347 345 341 338 338 339 342 341 336 329 325 324 325 327 325 321 316 313 311 307 304 301 299 297 295 291 281 274 270 269 267 257 242 229 224 226 232 239 247 257 261 252 242 240 242 243 228 207 204 221 243 250 251 270 275 257 244 243 254 271 282 280 263 259 269 281 276
350 349 348 346 343 340 338 336 338 341 340 334 325 320 320 323 322 318 312 308 305 303 301 298 294 293 292 292 287 279 270 263 261 261 257 248 244 247 250 248 246 248 251 251 244 241 242 239 224 208 203 213 218 194 176 211 253 225 215 221 236 252 265 272 266 261 262 267 264
350 349 348 347 346 343 340 335 334 335 338 338 332 324 317 317 318 316 311 305 300 298 296 295 292 289 287 286 285 280 272 263 258 259 264 270 274 274 271 264 255 248 246 248 245 243 242 238 224 211 208 217 215 186 181 235 283 201 193 202 217 237 252 257 254 254 262 271 263
350 349 348 347 346 344 341 336 333 331 332 334 334 330 321 313 310 310 308 303 298 295 293 293 291 287 283 281 279 276 272 267 261 259 260 265 268 270 269 266 259 252 248 249 248 246 243 236 226 215 213 221 229 224 221 235 263 200 183 195 219 245 254 247 238 242 263 283 270
349 349 348 347 346 344 342 339 336 333 330 329 331 332 329 320 309 303 302 301 299 296 293 291 290 287 282 279 277 274 271 268 265 262 260 261 263 264 263 260 256 252 250 251 253 253 247 232 224 218 216 219 227 235 235 231 238 232 223 232 253 269 269 248 228 230 257 286 278
347 348 348 346 345 344 343 342 340 337 333 330 328 330 332 331 320 308 301 300 300 298 294 292 291 289 287 284 280 276 273 270 267 265 264 264 264 263 261 256 252 250 250 252 256 259 250 228 219 217 217 216 220 227 230 225 226 230 236 247 266 281 282 253 218 217 243 276 278
345 346 346 346 345 344 343 343 342 341 339 334 329 328 330 333 331 321 308 300 299 299 298 295 293 293 293 291 286 281 277 273 270 266 264 264 264 263 260 255 250 247 248 251 258 261 249 222 214 215 216 215 215 213 211 215 219 220 226 241 264 292 299 228 196 201 227 254 261
345 345 346 346 346 345 344 343 343 343 342 338 333 329 328 331 333 331 323 311 306 304 303 299 294 291 291 290 287 283 277 273 270 267 265 265 264 262 259 254 248 245 246 249 257 262 248 219 212 214 217 215 211 203 200 206 209 209 214 231 267 302 309 181 181 192 216 244 249
344 344 345 345 346 345 344 343 343 344 343 341 338 334 330 329 332 334 332 325 317 311 307 301 293 288 286 286 286 282 276 270 268 267 266 266 266 265 262 255 247 243 243 247 256 262 251 221 215 217 220 217 212 204 200 203 203 204 209 225 250 272 237 183 182 189 211 244 241
341 342 343 343 344 345 345 344 344 344 344 343 342 341 338 334 332 333 333 329 323 317 311 303 295 289 286 284 286 283 277 270 266 266 265 264 263 265 266 260 250 243 243 246 255 262 255 228 221 221 222 220 216 209 206 206 209 213 220 226 205 186 187 194 187 189 215 251 234
340 341 341 340 341 343 345 344 343 343 343 343 344 346 345 341 336 333 331 328 323 319 314 307 298 292 288 286 285 282 277 271 266 265 263 262 260 262 265 266 255 245 242 245 252 260 259 236 225 222 222 222 221 217 212 211 214 217 221 221 208 203 203 201 188 195 229 241 218
339 340 340 340 340 341 343 344 343 343 342 342 344 346 348 346 342 335 330 327 323 318 314 309 302 296 292 289 285 281 277 273 269 266 264 263 262 263 265 267 259 247 240 243 249 256 258 241 228 223 222 223 227 222 214 210 212 215 214 207 201 205 207 192 182 196 235 211 189
338 338 339 340 340 340 340 342 342 342 342 342 343 345 347 348 347 341 332 326 322 318 313 308 303 299 296 293 289 285 282 279 278 276 273 270 268 267 267 266 258 246 239 239 243 251 253 241 230 225 222 223 233 223 209 203 206 211 209 200 198 200 197 183 180 190 212 189 172
338 338 338 339 339 339 339 339 340 341 341 341 342 343 345 348 349 346 338 328 323 319 315 309 304 299 295 292 290 289 288 287 285 283 281 279 277 275 271 264 252 241 236 237 240 246 247 236 228 224 221 222 235 220 202 195 200 207 209 202 199 197 191 180 182 189 197 185 176
337 337 337 338 339 338 337 337 337 338 339 340 341 341 343 345 348 348 343 334 326 321 318 312 306 299 292 286 284 284 286 286 286 286 285 285 284 281 274 261 246 236 233 235 238 242 242 231 223 221 220 220 231 217 198 194 200 209 210 204 198 195 189 176 180 186 190 182 179
336 336 337 337 337 337 337 335 335 335 337 338 339 340 340 341 344 345 345 340 332 324 318 314 309 303 294 285 281 281 283 286 287 288 289 289 288 283 271 255 243 235 233 235 238 241 239 228 218 217 218 218 227 220 206 201 208 211 207 200 194 190 184 175 178 186 192 186 179
335 335 336 336 336 336 336 335 333 332 333 335 337 338 338 338 339 340 342 341 337 329 320 315 311 306 299 291 285 284 285 288 289 290 291 291 288 279 265 250 240 236 235 236 239 240 239 230 217 213 215 215 223 224 218 211 211 209 204 199 195 191 183 176 180 189 197 193 182
334 334 335 335 335 334 334 333 332 330 330 331 334 335 336 336 335 335 337 339 338 333 324 316 311 307 301 294 289 287 288 290 290 289 289 288 284 275 260 246 239 237 237 237 237 238 238 234 221 213 212 213 221 226 224 214 210 208 208 205 201 194 187 183 184 190 195 189 174
332 333 333 333 333 332 332 332 331 330 328 328 330 332 334 334 334 333 333 334 336 334 328 318 311 305 300 295 291 289 289 290 289 287 285 284 281 273 258 245 238 237 239 239 237 235 234 234 226 216 212 213 222 230 227 213 211 211 210 210 207 202 194 190 187 189 190 180 160
331 332 331 331 331 331 331 331 331 330 328 326 327 329 331 333 333 333 331 331 332 333 330 323 314 306 300 296 292 289 288 288 288 285 281 280 278 271 257 245 241 239 239 240 236 231 229 231 228 219 213 216 228 236 229 208 205 205 204 205 208 206 197 190 183 183 182 172 151
330 330 330 330 330 330 330 330 331 331 329 327 326 326 328 330 332 332 331 330 330 331 331 327 319 309 302 297 293 290 288 287 287 284 280 277 275 268 256 245 242 241 241 241 234 228 226 229 228 220 216 221 233 239 225 201 195 193 193 195 199 200 192 185 178 174 171 165 148
329 329 329 329 329 329 329 330 331 331 330 328 326 325 326 328 329 331 331 331 330 330 330 328 322 313 304 297 294 291 289 287 285 282 279 276 273 265 254 244 242 243 243 241 236 231 230 229 226 218 217 225 235 235 215 196 187 182 182 184 185 185 184 182 178 172 166 160 144
328 328 328 328 328 329 330 331 332 332 331 329 327 326 325 325 327 329 331 331 330 329 329 328 324 316 307 299 295 291 289 286 283 280 278 275 272 265 255 243 241 242 243 242 244 244 238 228 220 215 216 225 232 224 206 194 183 176 171 171 172 176 178 177 175 169 161 153 141
327 327 327 327 328 330 331 332 332 331 330 329 327 325 324 323 324 326 329 330 330 328 327 326 324 318 309 300 295 290 287 284 281 279 277 273 270 266 258 247 242 241 242 244 252 253 240 220 211 210 214 224 230 219 204 198 188 179 173 171 169 171 173 172 169 164 158 153 146
326 326 327 328 329 331 332 332 331 330 329 328 326 325 324 322 322 324 326 327 328 327 326 326 325 320 312 302 294 289 285 282 280 278 275 271 269 266 261 251 244 239 238 243 255 254 235 214 206 206 212 222 230 221 206 201 198 196 192 186 178 173 171 169 168 165 161 158 152
325 326 327 329 330 331 331 331 330 328 327 326 326 325 323 322 321 321 323 324 325 326 326 325 325 322 315 305 294 287 283 282 281 278 274 270 267 264 261 255 247 241 238 239 250 250 233 216 208 207 212 222 232 226 208 199 201 202 200 193 186 181 177 173 172 171 168 162 156
325 326 328 329 330 330 329 329 328 327 326 326 325 323 322 321 320 319 320 321 323 324 324 324 324 323 317 308 295 285 280 281 281 278 274 269 265 262 261 258 250 242 238 237 243 243 232 217 212 210 215 223 234 231 211 195 193 194 193 191 190 189 188 183 180 177 173 167 161
325 327 328 329 329 328 327 327 326 326 325 325 323 322 321 320 319 318 318 319 321 322 323 323 322 321 318 310 298 287 279 279 279 278 274 269 264 262 260 258 253 245 238 236 238 238 231 220 215 213 217 224 232 229 212 195 188 185 185 187 189 192 193 192 188 183 177 171 166
325 327 329 329 328 326 325 325 325 324 324 323 322 321 320 319 318 317 317 317 319 320 320 320 320 319 316 310 301 290 282 278 278 277 274 268 264 261 259 257 254 247 240 236 236 236 233 226 220 215 216 221 230 229 212 195 186 182 182 184 188 192 195 195 192 186 180 176 172
326 327 328 327 326 324 323 323 323 322 322 322 321 320 319 318 317 316 316 316 316 317 317 317 316 315 314 310 303 293 284 277 276 275 272 267 262 259 258 256 254 249 241 234 233 233 232 229 225 220 216 217 224 224 211 194 186 182 181 183 186 191 194 194 188 183 179 178 176
325 326 326 325 324 322 322 321 321 321 321 321 320 319 318 317 316 316 315 314 314 315 316 316 315 314 314 313 308 299 288 279 275 271 269 265 261 259 257 255 254 250 242 234 231 231 229 228 226 222 218 216 219 220 212 197 187 183 182 183 185 189 190 188 183 179 177 178 179
325 325 325 324 322 321 320 320 320 320 320 320 319 318 317 316 315 314 314 313 313 313 314 314 314 313 313 313 311 304 294 283 275 270 268 265 262 259 257 256 254 250 242 234 229 228 227 226 225 222 220 218 217 218 215 205 193 186 184 186 189 189 185 181 179 178 178 181 183
324 324 324 322 321 320 320 319 319 319 319 318 317 316 315 314 314 314 313 313 312 311 311 311 311 311 311 310 309 305 296 286 276 270 266 265 263 261 258 255 253 248 241 233 230 227 225 224 223 222 222 221 218 215 212 207 197 190 188 191 193 189 182 179 179 181 183 185 186
324 324 323 321 320 319 319 319 319 319 318 317 316 315 314 313 313 313 313 312 311 310 309 309 309 308 308 308 307 304 298 289 279 271 266 264 263 261 258 254 252 247 240 232 228 226 226 226 224 222 222 222 219 212 206 201 196 192 191 194 196 192 185 181 182 186 189 189 189
323 323 322 320 319 319 318 318 318 318 317 315 315 314 313 313 312 312 311 311 310 308 307 307 308 308 308 308 308 305 299 291 282 273 266 263 261 260 257 255 253 248 239 231 227 227 230 232 230 224 221 221 217 209 200 193 192 191 191 195 198 195 189 185 185 188 192 193 192
322 321 320 319 318 318 318 318 317 317 315 314 313 313 312 312 311 311 311 310 309 307 306 307 307 307 307 307 307 305 300 293 284 275 268 262 259 257 256 255 254 249 239 230 226 226 230 237 235 225 218 217 214 205 195 189 189 191 194 197 201 198 192 188 187 190 194 195 195
320 320 319 318 317 316 316 316 316 315 314 313 312 311 311 310 310 310 310 310 308 306 305 306 306 305 305 306 305 304 302 296 287 277 269 261 257 255 254 255 255 250 240 229 225 223 228 239 237 222 212 212 209 200 192 187 188 192 197 199 202 199 194 189 189 192 197 198 196
318 318 317 316 315 314 314 314 314 313 313 311 311 310 309 309 308 308 309 308 306 304 304 304 303 303 303 304 304 304 302 297 289 279 270 261 256 252 251 252 255 252 242 228 223 223 228 238 235 218 207 206 202 195 189 185 187 192 196 200 200 197 192 191 193 196 199 198 196
317 317 316 314 313 312 312 312 311 311 310 310 309 308 308 307 306 306 307 307 305 303 302 301 300 301 302 302 301 301 300 298 291 281 271 262 256 253 250 250 254 253 243 227 221 221 227 236 231 215 205 204 198 192 187 185 186 190 194 197 196 193 192 194 196 197 196 194 192
316 315 314 313 311 310 310 309 309 309 308 307 307 306 306 305 305 305 305 305 304 303 302 300 299 299 300 299 298 297 297 296 291 283 273 264 258 253 250 248 252 252 242 226 220 220 225 231 227 215 206 203 196 191 187 185 187 189 190 190 191 192 194 196 196 193 189 186 186
314 314 313 311 309 308 308 307 307 307 306 305 304 304 304 304 303 304 304 304 304 303 301 300 298 298 297 296 294 293 293 292 290 283 275 266 258 251 247 245 248 249 241 227 219 219 223 225 223 217 209 202 195 190 187 186 186 187 187 187 190 192 192 191 189 186 182 181 180
Height
778 777 776 775 774 773 771 770 769 768 767 766 765 764 763 762 761 761 760 759 759 758 758 758 757 757 756 756 756 755 755 755 755 754 754 753 753 754 754 754 754 754 753 753 753 753 753 753 753 753 753 753 753 753 753 753 753 753 753 753 753 753 753 753 753 754 754 753 753
778 777 776 775 774 773 771 770 769 768 767 766 765 764 763 762 761 760 759 759 758 758 757 757 757 756 756 755 755 755 754 754 754 754 754 753 753 753 753 753 753 753 753 753 753 753 753 753 753 753 753 753 753 753 752 752 752 752 752 752 753 753 753 753 753 753 753 753 753
778 776 775 774 773 772 771 769 768 767 766 765 765 763 763 761 760 759 759 758 758 757 757 756 756 755 755 755 755 754 754 754 754 754 753 753 753 753 753 753 753 753 753 752 752 752 752 752 752 752 752 752 752 752 752 752 752 752 752 752 752 753 753 753 753 753 753 753 753
778 776 775 773 773 772 770 769 768 767 766 765 764 763 762 761 760 759 758 757 757 756 756 755 755 754 754 754 754 754 753 753 753 753 753 753 753 753 753 752 752 752 752 752 752 752 752 752 751 751 751 751 751 751 751 752 752 752 752 752 752 752 753 753 753 753 753 753 752
777 776 775 773 773 771 770 769 768 767 765 764 763 762 761 760 759 758 757 756 755 755 755 754 754 754 753 753 753 753 753 753 753 752 752 752 752 752 752 752 752 752 751 751 751 751 751 751 751 751 751 751 750 751 751 751 752 752 751 752 752 752 752 752 753 753 753 752 752
777 776 774 773 772 771 770 769 767 766 765 764 763 762 760 759 758 757 756 755 754 754 754 753 753 753 753 753 752 752 752 752 752 752 752 751 751 751 751 751 751 751 751 750 750 750 750 750 750 750 750 750 750 750 750 751 751 751 751 751 751 751 752 752 752 752 752 752 752
777 776 774 773 772 771 769 768 767 765 764 763 762 761 760 758 757 756 755 754 754 753 753 753 753 752 752 752 751 751 751 751 751 751 751 751 751 750 750 750 750 750 750 749 749 749 749 749 749 749 749 750 750 750 750 750 750 751 751 751 751 751 751 751 752 752 752 752 752
777 776 774 773 772 770 769 768 766 765 764 763 762 761 759 758 757 756 755 754 753 753 752 752 752 752 751 751 751 751 750 750 750 750 750 750 750 750 750 749 749 749 749 749 749 749 749 749 749 749 749 749 749 749 749 749 750 750 750 750 750 750 751 751 751 751 751 751 751
777 775 774 773 771 770 769 767 766 764 763 762 761 760 759 758 757 756 754 753 753 752 752 751 751 751 751 750 750 750 750 749 749 749 749 749 749 749 749 749 749 748 748 748 748 748 748 748 748 748 748 748 748 748 749 749 749 749 749 750 750 750 750 750 751 751 751 751 751
776 775 773 772 771 770 768 767 765 764 763 762 761 760 758 758 757 756 754 753 753 752 751 751 750 750 750 749 749 749 749 749 748 748 748 748 748 748 748 748 748 748 748 747 747 748 748 748 748 748 748 748 748 748 748 748 749 749 749 749 750 750 750 750 750 751 751 751 751
776 775 773 772 771 769 768 767 765 764 763 761 760 759 758 757 756 755 754 753 752 752 751 750 750 749 749 749 749 748 748 748 748 748 747 747 747 747 747 748 748 747 747 747 747 747 747 747 747 747 747 747 748 748 748 748 748 748 749 749 749 750 749 749 750 750 750 750 750
776 774 773 772 770 769 768 766 765 763 762 761 760 758 757 756 755 754 754 753 752 751 750 750 749 749 748 748 748 748 748 747 747 747 746 746 746 746 746 747 747 747 746 746 746 746 746 746 746 747 747 747 747 747 747 747 747 748 748 748 749 749 749 749 750 750 750 749 750
775 774 773 771 770 769 767 766 764 763 762 761 759 758 757 755 754 754 753 753 752 751 750 749 749 748 748 748 747 747 747 746 746 746 746 745 745 745 745 745 745 746 745 745 745 745 745 746 746 746 746 746 747 747 746 746 747 747 748 748 748 748 748 749 749 750 749 749 749
775 773 772 771 769 768 767 766 764 763 762 760 759 758 756 755 754 753 752 752 751 750 750 749 748 748 748 747 747 746 746 746 745 745 745 744 744 743 743 743 744 744 744 744 744 745 745 745 745 746 746 746 746 746 746 745 746 747 747 748 748 748 748 748 749 749 749 749 749
774 773 772 770 769 768 767 765 764 763 761 760 759 758 756 755 753 753 752 751 750 750 749 748 748 747 747 746 746 746 745 745 744 744 743 743 743 742 742 742 743 743 743 743 744 744 744 744 745 745 745 745 746 745 745 745 745 746 747 747 747 747 748 748 748 748 748 748 749
773 772 771 770 768 767 766 765 763 762 761 760 759 757 756 755 753 752 751 750 750 749 748 748 747 747 746 745 745 744 744 744 743 743 742 742 741 741 741 741 741 742 742 743 743 743 743 743 744 744 745 745 745 745 745 745 745 746 746 747 747 747 747 748 748 748 748 748 748
773 772 770 769 768 767 766 764 763 762 761 759 758 757 756 755 753 752 751 750 749 748 748 747 747 746 745 745 744 744 743 743 743 742 741 741 741 740 740 740 741 741 742 742 742 742 742 743 743 744 744 744 745 745 744 744 745 745 746 746 746 746 747 747 748 748 748 748 748
772 771 770 768 768 766 765 764 763 762 760 759 758 757 756 754 753 752 751 750 749 748 747 746 746 745 745 744 743 743 743 742 742 741 741 740 740 740 740 740 740 740 741 741 741 741 741 742 742 743 743 744 744 744 744 744 744 745 745 746 746 746 746 747 747 747 748 748 748
772 771 769 768 767 766 764 763 762 761 760 759 758 756 755 754 753 752 750 749 748 747 746 745 745 744 744 743 743 742 742 741 741 740 740 740 739 739 739 739 739 740 740 740 740 740 740 741 742 742 743 743 743 743 743 743 743 744 745 745 745 746 746 746 747 747 747 747 748
771 770 769 768 766 765 764 763 762 760 759 758 757 756 754 753 752 751 750 748 747 747 746 745 744 743 743 742 742 741 741 740 740 740 739 739 739 739 739 739 739 739 739 740 740 740 740 740 741 741 742 743 743 743 743 743 743 743 744 744 745 745 746 746 746 747 747 747 748
771 770 768 767 766 765 763 762 761 760 759 758 756 755 754 753 751 750 749 748 747 746 745 744 743 742 742 741 741 740 740 739 739 739 738 738 738 738 738 738 738 738 739 739 739 739 740 740 740 741 742 742 742 742 742 742 742 743 743 744 744 745 745 746 746 746 747 747 747
770 769 768 767 765 764 763 762 760 759 758 757 756 754 753 752 751 749 748 747 746 745 744 743 742 742 741 740 740 739 739 738 738 738 738 738 738 738 738 738 738 738 738 738 738 739 739 739 740 740 741 741 741 742 742 742 742 742 743 743 744 745 745 745 745 746 746 747 747
770 768 767 766 765 763 762 761 760 758 758 756 755 754 752 751 750 748 747 746 745 744 743 742 741 741 740 739 739 738 738 738 738 737 737 737 737 737 737 737 737 737 737 737 737 738 738 738 739 740 740 740 741 741 741 742 742 742 742 743 744 744 744 745 745 746 746 747 747
769 768 767 765 764 763 762 760 759 758 757 755 754 753 752 750 749 748 746 745 744 743 742 741 740 739 739 738 738 738 737 737 737 736 736 736 736 736 736 736 736 736 736 736 736 737 737 737 738 739 739 739 740 741 741 741 741 742 742 743 744 744 744 744 745 745 746 747 747
769 767 766 765 763 762 761 760 758 757 756 755 753 752 751 749 748 747 746 744 743 742 741 740 739 738 738 737 737 737 737 736 736 736 735 735 735 735 735 735 735 735 735 735 736 736 736 736 737 738 739 739 739 740 740 740 741 741 742 743 743 744 744 744 745 745 746 747 747
768 767 765 764 763 761 760 759 758 757 755 754 753 751 750 749 748 746 745 744 743 742 740 739 738 738 737 737 736 736 735 735 735 735 735 734 734 734 734 734 735 735 735 735 735 735 736 736 737 738 738 738 739 739 739 739 740 740 741 742 743 743 744 744 744 745 746 746 747
767 766 765 763 762 761 759 758 757 756 754 753 752 750 749 748 747 746 744 743 742 741 740 739 738 737 736 736 735 735 735 734 734 734 734 734 734 733 733 734 734 734 734 734 734 735 735 736 736 737 738 738 738 738 739 739 739 739 740 741 742 743 743 743 744 745 746 746 747
767 765 764 763 761 760 758 757 756 755 753 752 751 750 748 747 746 745 744 743 742 740 739 738 737 736 735 735 734 734 734 733 733 733 733 733 733 733 733 733 733 733 733 733 734 734 734 735 736 737 737 737 738 738 738 738 738 738 739 740 741 742 743 743 744 744 745 746 747
766 765 763 762 761 759 758 757 755 754 753 751 750 749 748 747 745 744 743 742 741 740 739 738 737 736 735 734 734 733 733 733 732 732 732 732 732 732 732 732 732 732 733 733 733 733 734 734 735 736 736 737 737 737 738 738 738 738 738 739 741 742 742 743 743 744 745 746 746
766 764 763 762 760 759 757 756 754 753 752 751 749 748 747 746 744 743 742 741 740 739 738 737 736 735 734 733 733 732 732 732 731 731 731 731 731 731 731 731 731 731 732 732 733 733 733 734 734 735 736 736 737 737 737 737 737 738 738 739 740 741 742 743 743 744 744 745 746
765 764 763 761 759 758 757 755 753 752 751 750 748 747 746 745 743 743 742 740 739 738 738 737 735 734 733 733 732 731 731 730 730 730 730 730 730 730 730 730 730 730 731 731 732 732 733 733 733 734 735 735 736 736 736 737 737 737 738 738 740 741 741 742 743 743 744 745 745
764 763 762 760 759 757 756 754 753 751 750 749 748 746 745 744 743 742 741 740 738 737 736 735 734 733 732 731 731 730 730 729 729 729 729 729 729 729 729 729 729 729 730 730 731 731 732 732 733 733 734 734 735 735 736 736 736 737 737 738 739 740 741 742 742 743 743 744 745
763 762 761 760 758 756 755 753 752 751 749 748 747 746 744 743 742 741 739 738 738 737 735 734 733 732 731 730 730 729 729 728 728 728 728 728 728 728 728 728 728 728 728 729 729 730 731 731 732 733 733 733 734 734 735 735 736 736 737 738 739 740 741 741 742 743 743 744 745
763 761 760 758 757 756 754 753 751 750 748 747 746 745 743 742 741 739 738 738 737 735 734 733 733 732 731 730 729 728 728 727 727 727 727 727 727 727 727 727 727 727 728 728 728 729 730 730 731 732 732 733 733 733 733 734 735 736 736 737 738 739 740 741 742 742 743 744 744
762 760 759 758 756 754 753 752 750 749 747 746 745 743 743 741 740 739 738 736 735 734 733 732 731 731 729 729 728 727 727 726 726 725 725 726 725 726 726 726 726 726 727 727 728 728 728 729 730 731 732 732 732 732 732 733 734 735 736 737 738 739 740 741 741 742 743 743 744
761 760 758 757 755 753 752 751 749 748 746 745 744 743 741 740 739 738 736 735 734 733 732 731 730 729 728 728 727 726 725 725 724 724 724 724 724 724 724 724 724 725 725 726 727 727 727 728 729 730 731 731 731 731 731 732 733 734 735 736 738 738 739 740 741 742 742 743 743
760 759 758 756 754 753 751 750 748 747 745 744 743 742 740 739 738 736 735 734 733 732 731 730 729 728 727 727 726 725 724 724 723 723 723 723 723 723 723 723 723 724 724 725 725 726 726 727 728 728 729 730 730 730 731 732 733 734 735 736 737 738 739 740 740 741 742 742 743
759 758 757 755 753 752 750 749 748 746 744 743 742 740 739 738 737 735 734 733 732 731 729 728 728 727 726 725 724 723 723 723 722 722 722 722 722 722 722 722 723 723 723 724 724 725 725 725 726 727 728 728 728 729 730 731 732 733 734 735 737 738 738 739 740 740 741 742 742
758 757 756 754 753 751 749 748 747 745 744 742 741 739 738 737 736 734 733 732 731 730 729 728 727 726 725 724 723 723 722 721 721 721 721 721 721 721 721 721 721 722 722 723 723 724 724 724 725 726 727 727 727 728 729 730 731 733 734 735 736 737 738 739 739 740 740 741 742
757 756 754 753 752 750 748 747 746 744 743 742 740 738 737 736 734 733 732 731 730 729 728 727 725 725 724 723 723 721 720 720 720 719 719 719 719 720 720 720 720 721 721 722 723 723 723 724 724 725 726 726 726 727 728 729 731 732 733 735 736 737 738 738 739 739 740 741 742
756 754 753 752 750 749 748 746 744 743 742 740 739 737 736 735 733 732 731 730 729 728 727 725 724 723 723 722 721 720 719 719 718 718 718 718 718 718 719 719 719 720 720 721 722 722 723 723 723 724 725 725 725 727 728 729 730 731 733 734 735 736 737 738 738 739 740 740 741